WMT9103 LQBK-EDLW

Flight info

Callsign WMT9103
Flight time 1h 34m
Altitude 38000
Route TEBLI DCT ZAG DCT PETOV DCT GOLVA DCT LAMSI DCT AKOSI DCT PILAM T843 DEMAB T842 ADEMI ADEMI2A
Aircraft A320/M-SDE3FGHIRWY/LB1

Departure

Time 2026-04-21 11:57
Airport Banja Luka International Airport (LQBK)

Arrival

Time 2026-04-21 13:31
Airport Dortmund Airport (EDLW)
Time Latitude Longitude Altitude Speed Heading
2026-04-21 11:25 44.93309 17.30282 391 ft 0 kts 12°
2026-04-21 11:51 44.93316 17.30280 391 ft 2 kts 347°
2026-04-21 11:52 44.93321 17.30269 391 ft 1 kts 303°
2026-04-21 11:52 44.93322 17.30239 391 ft 2 kts 251°
2026-04-21 11:52 44.93309 17.30231 391 ft 2 kts 202°
2026-04-21 11:52 44.93284 17.30226 391 ft 5 kts 180°
2026-04-21 11:53 44.93239 17.30230 391 ft 8 kts 186°
2026-04-21 11:53 44.93182 17.30188 391 ft 11 kts 214°
2026-04-21 11:53 44.93120 17.30128 391 ft 10 kts 214°
2026-04-21 11:53 44.93073 17.30076 394 ft 5 kts 234°
2026-04-21 11:54 44.93070 17.30064 392 ft 0 kts 250°
2026-04-21 11:54 44.93070 17.30053 393 ft 4 kts 268°
2026-04-21 11:54 44.93104 17.30021 394 ft 7 kts 346°
2026-04-21 11:54 44.93117 17.30017 393 ft 0 kts 349°
2026-04-21 11:56 44.93138 17.30012 394 ft 7 kts 350°
2026-04-21 11:56 44.93363 17.29954 393 ft 68 kts 349°
2026-04-21 11:56 44.94032 17.29779 390 ft 124 kts 349°
2026-04-21 11:56 44.95016 17.29525 626 ft 150 kts 352°
2026-04-21 11:57 44.96028 17.29266 1438 ft 147 kts 352°
2026-04-21 11:57 44.97062 17.29013 2080 ft 160 kts 352°
2026-04-21 11:57 44.98237 17.28739 2577 ft 180 kts 352°
2026-04-21 11:57 44.99539 17.28427 2999 ft 200 kts 352°
2026-04-21 11:58 45.01000 17.28092 3381 ft 226 kts 352°
2026-04-21 11:58 45.02634 17.27702 3900 ft 250 kts 348°
2026-04-21 11:58 45.04270 17.26714 4754 ft 263 kts 326°
2026-04-21 11:58 45.05547 17.24848 5780 ft 267 kts 303°
2026-04-21 11:59 45.06232 17.22401 6806 ft 271 kts 281°
2026-04-21 11:59 45.06192 17.19734 7785 ft 275 kts 259°
2026-04-21 11:59 45.05741 17.17094 8762 ft 278 kts 256°
2026-04-21 11:59 45.05279 17.14466 9789 ft 280 kts 256°
2026-04-21 12:00 45.04838 17.11734 10441 ft 295 kts 261°
2026-04-21 12:00 45.04539 17.08764 10862 ft 313 kts 268°
2026-04-21 12:00 45.04780 17.05684 11590 ft 319 kts 287°
2026-04-21 12:00 45.05790 17.02910 12510 ft 320 kts 308°
2026-04-21 12:01 45.07481 17.00878 13498 ft 322 kts 327°
2026-04-21 12:01 45.09415 16.99271 14447 ft 322 kts 327°
2026-04-21 12:01 45.11369 16.97685 15264 ft 325 kts 327°
2026-04-21 12:01 45.13334 16.96103 16128 ft 325 kts 326°
2026-04-21 12:02 45.15298 16.94518 17006 ft 325 kts 326°
2026-04-21 12:02 45.19223 16.91322 18701 ft 326 kts 324°
2026-04-21 12:02 45.21195 16.89708 19413 ft 329 kts 324°
2026-04-21 12:03 45.23184 16.88072 20113 ft 333 kts 323°
2026-04-21 12:03 45.25197 16.86414 20825 ft 337 kts 323°
2026-04-21 12:03 45.27235 16.84736 21503 ft 341 kts 323°
2026-04-21 12:03 45.29297 16.83042 22161 ft 345 kts 323°
2026-04-21 12:04 45.31384 16.81326 22814 ft 349 kts 323°
2026-04-21 12:04 45.33491 16.79592 23591 ft 351 kts 323°
2026-04-21 12:04 45.35608 16.77849 24217 ft 353 kts 323°
2026-04-21 12:04 45.37737 16.76096 24832 ft 355 kts 322°
2026-04-21 12:05 45.39879 16.74330 25449 ft 357 kts 322°
2026-04-21 12:05 45.42036 16.72547 26045 ft 359 kts 322°
2026-04-21 12:05 45.44203 16.70752 26660 ft 362 kts 322°
2026-04-21 12:05 45.46386 16.68945 27257 ft 364 kts 322°
2026-04-21 12:06 45.48586 16.67122 27851 ft 367 kts 322°
2026-04-21 12:06 45.50801 16.65287 28442 ft 369 kts 322°
2026-04-21 12:06 45.53029 16.63437 29014 ft 372 kts 322°
2026-04-21 12:06 45.55271 16.61570 29582 ft 375 kts 322°
2026-04-21 12:07 45.57531 16.59686 30097 ft 377 kts 322°
2026-04-21 12:07 45.59773 16.57814 30526 ft 380 kts 322°
2026-04-21 12:07 45.62065 16.55901 30962 ft 383 kts 322°
2026-04-21 12:07 45.64376 16.53974 31359 ft 386 kts 322°
2026-04-21 12:08 45.66707 16.52031 31738 ft 389 kts 322°
2026-04-21 12:08 45.69042 16.50082 32273 ft 388 kts 323°
2026-04-21 12:08 45.71372 16.48141 32819 ft 387 kts 323°
2026-04-21 12:08 45.73698 16.46200 33350 ft 387 kts 323°
2026-04-21 12:09 45.76022 16.44258 33883 ft 386 kts 323°
2026-04-21 12:09 45.78341 16.42314 34376 ft 387 kts 323°
2026-04-21 12:09 45.80671 16.40351 34684 ft 390 kts 323°
2026-04-21 12:09 45.83052 16.38341 35021 ft 393 kts 323°
2026-04-21 12:10 45.85417 16.36345 35374 ft 395 kts 324°
2026-04-21 12:10 45.87761 16.34369 35719 ft 397 kts 324°
2026-04-21 12:10 45.90148 16.32357 36082 ft 399 kts 324°
2026-04-21 12:10 45.92542 16.30336 36439 ft 400 kts 325°
2026-04-21 12:11 45.94949 16.28302 36781 ft 402 kts 325°
2026-04-21 12:11 45.97364 16.26257 37124 ft 404 kts 325°
2026-04-21 12:11 45.99789 16.24200 37438 ft 405 kts 325°
2026-04-21 12:11 46.02223 16.22139 37762 ft 407 kts 326°
2026-04-21 12:12 46.04676 16.20064 37992 ft 411 kts 326°
2026-04-21 12:12 46.09627 16.15873 38073 ft 413 kts 326°
2026-04-21 12:13 46.14578 16.11658 38063 ft 413 kts 326°
2026-04-21 12:13 46.19533 16.07416 38067 ft 415 kts 326°
2026-04-21 12:14 46.24495 16.03157 38064 ft 415 kts 326°
2026-04-21 12:14 46.29474 15.98898 38076 ft 417 kts 327°
2026-04-21 12:15 46.34498 15.94687 38075 ft 418 kts 328°
2026-04-21 12:15 46.39592 15.90615 38078 ft 419 kts 328°
2026-04-21 12:16 46.44698 15.86544 38069 ft 419 kts 328°
2026-04-21 12:16 46.49787 15.82430 38087 ft 419 kts 328°
2026-04-21 12:17 46.54881 15.78293 38072 ft 420 kts 328°
2026-04-21 12:17 46.59989 15.74133 38067 ft 421 kts 328°
2026-04-21 12:18 46.65102 15.69957 38068 ft 422 kts 328°
2026-04-21 12:18 46.70218 15.65769 38072 ft 422 kts 327°
2026-04-21 12:19 46.75060 15.60987 38079 ft 420 kts 323°
2026-04-21 12:19 46.79824 15.56130 38078 ft 420 kts 323°
2026-04-21 12:20 46.84616 15.51237 38076 ft 420 kts 323°
2026-04-21 12:20 46.89444 15.46312 38072 ft 420 kts 323°
2026-04-21 12:21 46.94200 15.41437 38073 ft 420 kts 323°
2026-04-21 12:21 46.98982 15.36511 38089 ft 420 kts 323°
2026-04-21 12:22 47.03770 15.31576 38075 ft 421 kts 323°
2026-04-21 12:22 47.08559 15.26628 38069 ft 421 kts 323°
2026-04-21 12:23 47.12539 15.22511 38066 ft 421 kts 323°
2026-04-21 12:23 47.17331 15.17558 38063 ft 421 kts 323°
2026-04-21 12:24 47.22121 15.12586 38085 ft 421 kts 323°
2026-04-21 12:24 47.26903 15.07598 38080 ft 422 kts 323°
2026-04-21 12:25 47.31691 15.02605 38075 ft 422 kts 323°
2026-04-21 12:25 47.36477 14.97606 38079 ft 422 kts 323°
2026-04-21 12:26 47.41258 14.92591 38083 ft 422 kts 323°
2026-04-21 12:26 47.46030 14.87563 38099 ft 422 kts 323°
2026-04-21 12:27 47.50806 14.82534 38119 ft 422 kts 323°
2026-04-21 12:27 47.55585 14.77495 38124 ft 422 kts 323°
2026-04-21 12:28 47.60357 14.72442 38128 ft 422 kts 323°
2026-04-21 12:28 47.65129 14.67386 38145 ft 422 kts 323°
2026-04-21 12:29 47.69902 14.62316 38143 ft 422 kts 323°
2026-04-21 12:29 47.74639 14.57264 38164 ft 422 kts 322°
2026-04-21 12:30 47.79405 14.52158 38152 ft 423 kts 323°
2026-04-21 12:30 47.84180 14.47052 38143 ft 423 kts 323°
2026-04-21 12:31 47.88950 14.41939 38161 ft 422 kts 323°
2026-04-21 12:31 47.93718 14.36819 38162 ft 422 kts 322°
2026-04-21 12:32 47.98480 14.31686 38165 ft 422 kts 322°
2026-04-21 12:32 48.03235 14.26540 38171 ft 422 kts 322°
2026-04-21 12:33 48.07988 14.21387 38170 ft 422 kts 322°
2026-04-21 12:33 48.12744 14.16228 38169 ft 422 kts 322°
2026-04-21 12:34 48.17498 14.11071 38173 ft 422 kts 322°
2026-04-21 12:34 48.22244 14.05899 38181 ft 422 kts 322°
2026-04-21 12:35 48.26957 14.00743 38163 ft 422 kts 322°
2026-04-21 12:35 48.31705 13.95540 38163 ft 423 kts 322°
2026-04-21 12:36 48.36457 13.90331 38166 ft 423 kts 322°
2026-04-21 12:36 48.41205 13.85102 38163 ft 423 kts 322°
2026-04-21 12:37 48.45949 13.79861 38170 ft 423 kts 322°
2026-04-21 12:37 48.50689 13.74610 38168 ft 423 kts 322°
2026-04-21 12:38 48.55434 13.69354 38169 ft 424 kts 322°
2026-04-21 12:38 48.60185 13.64080 38167 ft 424 kts 322°
2026-04-21 12:39 48.64932 13.58779 38172 ft 424 kts 321°
2026-04-21 12:39 48.69331 13.52852 38173 ft 424 kts 316°
2026-04-21 12:40 48.73677 13.46826 38188 ft 424 kts 317°
2026-04-21 12:40 48.78026 13.40785 38178 ft 424 kts 317°
2026-04-21 12:41 48.82380 13.34738 38179 ft 425 kts 317°
2026-04-21 12:41 48.86732 13.28680 38172 ft 424 kts 317°
2026-04-21 12:42 48.91082 13.22617 38164 ft 424 kts 317°
2026-04-21 12:42 48.95429 13.16540 38180 ft 425 kts 316°
2026-04-21 12:43 48.99771 13.10443 38180 ft 425 kts 316°
2026-04-21 12:43 49.04087 13.04378 38179 ft 425 kts 317°
2026-04-21 12:44 49.08429 12.98254 38180 ft 425 kts 316°
2026-04-21 12:44 49.12768 12.92112 38178 ft 426 kts 316°
2026-04-21 12:45 49.17115 12.85962 38184 ft 426 kts 316°
2026-04-21 12:45 49.21455 12.79797 38189 ft 426 kts 316°
2026-04-21 12:46 49.25791 12.73624 38190 ft 426 kts 316°
2026-04-21 12:46 49.30132 12.67440 38203 ft 426 kts 317°
2026-04-21 12:47 49.34469 12.61228 38195 ft 427 kts 316°
2026-04-21 12:47 49.38800 12.54994 38190 ft 427 kts 316°
2026-04-21 12:48 49.43134 12.48753 38193 ft 427 kts 317°
2026-04-21 12:48 49.47474 12.42508 38197 ft 427 kts 316°
2026-04-21 12:49 49.51810 12.36249 38198 ft 427 kts 316°
2026-04-21 12:49 49.56142 12.29977 38206 ft 428 kts 316°
2026-04-21 12:50 49.60467 12.23684 38200 ft 428 kts 316°
2026-04-21 12:50 49.64792 12.17384 38178 ft 428 kts 316°
2026-04-21 12:51 49.69108 12.11056 38175 ft 428 kts 316°
2026-04-21 12:51 49.73052 12.04179 38170 ft 428 kts 308°
2026-04-21 12:52 49.76741 11.96944 38175 ft 429 kts 308°
2026-04-21 12:52 49.80421 11.89687 38176 ft 429 kts 308°
2026-04-21 12:53 49.84100 11.82417 38173 ft 429 kts 309°
2026-04-21 12:53 49.87778 11.75138 38181 ft 429 kts 309°
2026-04-21 12:54 49.91451 11.67843 38189 ft 429 kts 308°
2026-04-21 12:54 49.95120 11.60535 38208 ft 429 kts 308°
2026-04-21 12:55 49.98764 11.53268 38209 ft 429 kts 308°
2026-04-21 12:55 50.02426 11.45940 38199 ft 429 kts 308°
2026-04-21 12:56 50.06079 11.38599 38215 ft 429 kts 308°
2026-04-21 12:56 50.09724 11.31254 38224 ft 429 kts 309°
2026-04-21 12:57 50.13368 11.23887 38213 ft 429 kts 308°
2026-04-21 12:57 50.17015 11.16512 38220 ft 430 kts 308°
2026-04-21 12:58 50.20665 11.09128 38216 ft 430 kts 308°
2026-04-21 12:58 50.24310 11.01719 38222 ft 430 kts 308°
2026-04-21 12:59 50.27948 10.94282 38233 ft 431 kts 308°
2026-04-21 12:59 50.31583 10.86828 38239 ft 431 kts 308°
2026-04-21 13:00 50.35213 10.79354 38239 ft 431 kts 308°
2026-04-21 13:00 50.38835 10.71878 38264 ft 431 kts 309°
2026-04-21 13:01 50.42455 10.64414 38254 ft 430 kts 308°
2026-04-21 13:01 50.46074 10.56945 38252 ft 430 kts 308°
2026-04-21 13:02 50.49656 10.49500 37914 ft 430 kts 308°
2026-04-21 13:02 50.51453 10.45754 37650 ft 429 kts 308°
2026-04-21 13:02 50.55045 10.38256 37127 ft 430 kts 308°
2026-04-21 13:03 50.56840 10.34494 36878 ft 430 kts 308°
2026-04-21 13:03 50.58635 10.30723 36633 ft 431 kts 308°
2026-04-21 13:03 50.60435 10.26943 36368 ft 432 kts 308°
2026-04-21 13:03 50.62236 10.23163 36096 ft 431 kts 308°
2026-04-21 13:04 50.64028 10.19403 35691 ft 428 kts 308°
2026-04-21 13:04 50.65808 10.15662 35227 ft 425 kts 308°
2026-04-21 13:04 50.67576 10.11937 34762 ft 424 kts 308°
2026-04-21 13:04 50.69336 10.08222 34294 ft 422 kts 308°
2026-04-21 13:05 50.71088 10.04518 33766 ft 420 kts 308°
2026-04-21 13:05 50.72824 10.00840 33361 ft 415 kts 308°
2026-04-21 13:05 50.74522 9.97241 33161 ft 405 kts 308°
2026-04-21 13:05 50.76196 9.93689 32696 ft 402 kts 308°
2026-04-21 13:06 50.77858 9.90161 32236 ft 399 kts 308°
2026-04-21 13:06 50.79506 9.86654 31782 ft 396 kts 309°
2026-04-21 13:06 50.81139 9.83171 31357 ft 393 kts 309°
2026-04-21 13:06 50.82763 9.79706 30914 ft 391 kts 309°
2026-04-21 13:07 50.84374 9.76256 30493 ft 389 kts 309°
2026-04-21 13:07 50.85976 9.72825 30018 ft 387 kts 309°
2026-04-21 13:07 50.87503 9.69346 29606 ft 384 kts 303°
2026-04-21 13:07 50.88794 9.65659 29189 ft 381 kts 302°
2026-04-21 13:08 50.89637 9.63229 28909 ft 379 kts 301°
2026-04-21 13:08 50.91327 9.58355 28390 ft 375 kts 301°
2026-04-21 13:08 50.92575 9.54752 27991 ft 371 kts 301°
2026-04-21 13:08 50.93812 9.51184 27612 ft 368 kts 301°
2026-04-21 13:09 50.95042 9.47642 27225 ft 365 kts 302°
2026-04-21 13:09 50.96259 9.44129 26819 ft 362 kts 302°
2026-04-21 13:09 50.97463 9.40641 26449 ft 359 kts 301°
2026-04-21 13:09 50.98654 9.37183 26083 ft 356 kts 301°
2026-04-21 13:10 50.99838 9.33741 25685 ft 354 kts 301°
2026-04-21 13:10 51.01016 9.30315 25288 ft 353 kts 301°
2026-04-21 13:10 51.02189 9.26902 24885 ft 352 kts 301°
2026-04-21 13:10 51.02964 9.24645 24620 ft 351 kts 301°
2026-04-21 13:11 51.04134 9.21242 24205 ft 351 kts 301°
2026-04-21 13:11 51.05302 9.17838 23794 ft 351 kts 301°
2026-04-21 13:11 51.06841 9.13332 23203 ft 349 kts 301°
2026-04-21 13:11 51.07994 9.09949 22791 ft 347 kts 301°
2026-04-21 13:12 51.09138 9.06589 22379 ft 345 kts 301°
2026-04-21 13:12 51.09909 9.04326 22103 ft 343 kts 301°
2026-04-21 13:12 51.11042 9.00992 21705 ft 342 kts 301°
2026-04-21 13:12 51.12170 8.97665 21286 ft 341 kts 301°
2026-04-21 13:13 51.13293 8.94348 20882 ft 340 kts 301°
2026-04-21 13:13 51.14409 8.91041 20479 ft 338 kts 301°
2026-04-21 13:13 51.15524 8.87745 20075 ft 338 kts 301°
2026-04-21 13:13 51.16637 8.84452 19670 ft 337 kts 301°
2026-04-21 13:14 51.17747 8.81160 19280 ft 337 kts 301°
2026-04-21 13:14 51.18854 8.77867 18877 ft 337 kts 301°
2026-04-21 13:14 51.19959 8.74578 18471 ft 337 kts 301°
2026-04-21 13:14 51.21063 8.71292 18047 ft 336 kts 301°
2026-04-21 13:15 51.22162 8.68014 17655 ft 334 kts 301°
2026-04-21 13:15 51.23253 8.64755 17260 ft 332 kts 301°
2026-04-21 13:15 51.24340 8.61508 16869 ft 331 kts 301°
2026-04-21 13:15 51.25423 8.58277 16473 ft 330 kts 301°
2026-04-21 13:16 51.26503 8.55051 16075 ft 329 kts 301°
2026-04-21 13:16 51.27560 8.51882 15698 ft 327 kts 301°
2026-04-21 13:16 51.28623 8.48675 15318 ft 326 kts 301°
2026-04-21 13:16 51.29682 8.45473 14936 ft 326 kts 301°
2026-04-21 13:17 51.30739 8.42279 14556 ft 325 kts 301°
2026-04-21 13:17 51.31795 8.39097 14173 ft 324 kts 301°
2026-04-21 13:17 51.32851 8.35921 13759 ft 323 kts 301°
2026-04-21 13:17 51.33901 8.32753 13371 ft 322 kts 301°
2026-04-21 13:18 51.34942 8.29602 12993 ft 320 kts 300°
2026-04-21 13:18 51.35979 8.26467 12618 ft 318 kts 300°
2026-04-21 13:18 51.37010 8.23347 12233 ft 316 kts 300°
2026-04-21 13:18 51.38036 8.20237 11852 ft 315 kts 300°
2026-04-21 13:19 51.39055 8.17137 11470 ft 314 kts 300°
2026-04-21 13:19 51.40070 8.14043 11092 ft 313 kts 300°
2026-04-21 13:19 51.41077 8.10957 10747 ft 312 kts 299°
2026-04-21 13:19 51.41721 8.07702 10523 ft 304 kts 276°
2026-04-21 13:20 51.41549 8.04377 9923 ft 300 kts 257°
2026-04-21 13:20 51.41023 8.01144 9246 ft 299 kts 254°
2026-04-21 13:20 51.40474 7.98013 8995 ft 283 kts 253°
2026-04-21 13:20 51.39952 7.95079 8858 ft 265 kts 253°
2026-04-21 13:21 51.39463 7.92338 8725 ft 248 kts 253°
2026-04-21 13:21 51.38998 7.89749 8446 ft 238 kts 253°
2026-04-21 13:21 51.38540 7.87200 8117 ft 237 kts 253°
2026-04-21 13:21 51.38086 7.84678 7870 ft 236 kts 254°
2026-04-21 13:22 51.37627 7.82166 7550 ft 234 kts 253°
2026-04-21 13:22 51.37173 7.79684 7123 ft 233 kts 253°
2026-04-21 13:22 51.36725 7.77250 6767 ft 229 kts 253°
2026-04-21 13:22 51.36272 7.74805 6299 ft 229 kts 253°
2026-04-21 13:23 51.35819 7.72377 6025 ft 227 kts 254°
2026-04-21 13:23 51.35366 7.69977 5779 ft 224 kts 253°
2026-04-21 13:23 51.34916 7.67585 5464 ft 226 kts 254°
2026-04-21 13:23 51.34459 7.65186 5216 ft 224 kts 253°
2026-04-21 13:24 51.34021 7.62802 4942 ft 224 kts 253°
2026-04-21 13:24 51.33580 7.60389 4648 ft 226 kts 253°
2026-04-21 13:24 51.33132 7.57981 4381 ft 225 kts 253°
2026-04-21 13:24 51.32701 7.55596 4164 ft 222 kts 257°
2026-04-21 13:25 51.32690 7.53178 3991 ft 217 kts 288°
2026-04-21 13:25 51.33363 7.51077 3944 ft 211 kts 316°
2026-04-21 13:25 51.34521 7.49746 3884 ft 203 kts 342°
2026-04-21 13:25 51.35838 7.48917 3839 ft 203 kts 344°
2026-04-21 13:26 51.37150 7.48073 3793 ft 203 kts 344°
2026-04-21 13:26 51.38460 7.47223 3749 ft 203 kts 343°
2026-04-21 13:26 51.39768 7.46375 3708 ft 203 kts 342°
2026-04-21 13:26 51.41077 7.45526 3624 ft 202 kts 342°
2026-04-21 13:27 51.42373 7.44686 3412 ft 200 kts 343°
2026-04-21 13:27 51.43669 7.43864 3155 ft 200 kts 346°
2026-04-21 13:27 51.44998 7.43807 2907 ft 189 kts 20°
2026-04-21 13:27 51.46062 7.44957 2598 ft 187 kts 54°
2026-04-21 13:28 51.46701 7.46741 2413 ft 183 kts 59°
2026-04-21 13:28 51.47330 7.48488 2204 ft 175 kts 59°
2026-04-21 13:28 51.47904 7.50100 1990 ft 158 kts 60°
2026-04-21 13:28 51.48416 7.51542 1787 ft 138 kts 58°
2026-04-21 13:29 51.48878 7.52850 1583 ft 131 kts 59°
2026-04-21 13:29 51.49322 7.54105 1404 ft 128 kts 59°
2026-04-21 13:29 51.49765 7.55358 1229 ft 130 kts 60°
2026-04-21 13:29 51.50203 7.56597 1035 ft 125 kts 62°
2026-04-21 13:30 51.50646 7.57850 853 ft 129 kts 63°
2026-04-21 13:30 51.51089 7.59092 665 ft 130 kts 61°
2026-04-21 13:30 51.51520 7.60336 478 ft 126 kts 62°
2026-04-21 13:30 51.51925 7.61484 414 ft 95 kts 61°
2026-04-21 13:31 51.52109 7.62010 412 ft 28 kts 60°
2026-04-21 13:31 51.52191 7.62247 413 ft 10 kts 62°
2026-04-21 13:31 51.52163 7.62333 417 ft 8 kts 153°
2026-04-21 13:31 51.52105 7.62383 412 ft 10 kts 151°
2026-04-21 13:32 51.52039 7.62355 410 ft 9 kts 237°
2026-04-21 13:32 51.52006 7.62256 413 ft 11 kts 242°
2026-04-21 13:32 51.51967 7.62144 412 ft 13 kts 240°
2026-04-21 13:32 51.51918 7.62004 412 ft 16 kts 240°
2026-04-21 13:33 51.51861 7.61840 415 ft 18 kts 241°
2026-04-21 13:33 51.51798 7.61663 417 ft 17 kts 239°
2026-04-21 13:33 51.51751 7.61532 423 ft 11 kts 240°
2026-04-21 13:33 51.51715 7.61429 423 ft 8 kts 240°
2026-04-21 13:34 51.51695 7.61374 422 ft 2 kts 239°
2026-04-21 13:34 51.51689 7.61357 425 ft 1 kts 241°
2026-04-21 13:34 51.51688 7.61356 425 ft 0 kts 241°
2026-04-21 13:36 51.51691 7.61364 423 ft 4 kts 245°
2026-04-21 13:37 51.51696 7.61401 423 ft 4 kts 296°
2026-04-21 13:37 51.51679 7.61430 429 ft 4 kts 331°
2026-04-21 13:37 51.51659 7.61447 420 ft 4 kts 332°
2026-04-21 13:37 51.51648 7.61457 424 ft 1 kts 332°
2026-04-21 13:39 51.51646 7.61459 434 ft 0 kts 332°